Location: Martz Observatory
(42.0083°N, 79.0667°W)
Time: 17:26:06
(UTC-04:00)

Meteor 1-23 Rocket - Visible Passes

Search period start: 31 July 2015 00:00
Search period end: 10 August 2015 00:00
Orbit: 837 x 889 km, 81.3° (Epoch: 30 July)

Date Brightness Start Highest point End Pass type
(mag) Time Alt. Az. Time Alt. Az. Time Alt. Az.
31 Jul 6.0 21:55:10 10° NNE 21:58:21 16° ENE 22:00:54 12° E visible
31 Jul 4.2 23:36:42 10° NNW 23:42:16 72° W 23:43:10 60° SSW visible
01 Aug 6.0 21:46:54 10° NNE 21:50:03 16° ENE 21:52:47 12° E visible
01 Aug 4.2 23:28:24 10° NNW 23:33:59 73° W 23:35:03 57° SSW visible
02 Aug 6.0 21:38:39 10° NNE 21:41:46 15° ENE 21:44:41 11° E visible
02 Aug 4.2 23:20:06 10° NNW 23:25:41 74° W 23:26:57 54° SSW visible
03 Aug 6.0 21:30:23 10° NNE 21:33:28 15° ENE 21:36:36 11° E visible
03 Aug 4.3 23:11:48 10° NNW 23:17:24 75° W 23:18:53 50° SSW visible
04 Aug 6.0 21:22:06 10° NNE 21:25:10 15° ENE 21:28:30 10° E visible
04 Aug 4.3 23:03:31 10° NNW 23:09:07 75° W 23:10:49 46° S visible
05 Aug 6.0 21:13:51 10° NNE 21:16:52 15° ENE 21:20:10 10° E visible
05 Aug 4.3 22:55:13 10° NNW 23:00:50 76° W 23:02:47 42° S visible
06 Aug 6.0 21:05:35 10° NNE 21:08:34 15° ENE 21:11:51 10° E visible
06 Aug 4.3 22:46:55 10° NNW 22:52:33 77° W 22:54:46 38° S visible
07 Aug 6.0 20:57:19 10° NNE 21:00:17 15° ENE 21:03:31 10° E visible
07 Aug 4.3 22:38:38 10° NNW 22:44:16 78° W 22:46:47 35° S visible
08 Aug 4.3 22:30:20 10° NNW 22:35:58 79° W 22:38:50 31° S visible
09 Aug 4.3 22:22:03 10° NNW 22:27:41 79° W 22:30:54 27° S visible
